COSMOS 2491 DEB, 44987

Orbit data source: Space-Track

COSMOS 2491 DEB, 44987 is space debris in LEO originally from a launch on Wed, 25 Dec 2013 UTC launched from the Plesetsk Missile And Space Complex (PKMTR). Debris objects in space refer to the collection of defunct objects orbiting the Earth. Examples of debris include non-operational satellites, rocket bodies, and fragments generated from explosions, collisions, or faulty payload assembly.

Loading next visibility...
Identifier
44987, 2013-076H
Orbit
LEO
Country
Flag of CISCIS
Related business
Manufacturer
TsNIIKhM
Mission
Spacecraft
Bus & Motor
Unknown
Mass
Unknown
Launch date (UTC)
2013-12-25 (13 years ago)
Launch vehicle
Unknown
Launch site
Plesetsk Missile And Space Complex (PKMTR)
Object type
Payload
Rocket body
Debris
Shape & HBR
Unknown shape, 0.1 m
Radar Cross Section
Medium (>0.1 m² and <1 m²)

Expand to show TLE details & history
Last TLE update: 13 hours ago

TLE from 13 hours ago
0 COSMOS 2491 DEB
1 44987U 13076H   26255.69024522 -.00000319  00000-0 -15045-2 0  9991
2 44987  82.4074  35.7565 0181595 255.0621 103.0307 12.72061461309411
Epoch: 2026-09-12T16:33Z
TLE epoch observation values (Epoch: 2026-09-12T16:33:57.187Z)
Latitude
-0.00006°
Longitude
155.57258°
Altitude
1,410.45 km
Speed
7.139 km/s
True Right ascension
02h 23m 01s
True Declination
0° 00' 00"
Sunlit
Object was in full shadow at epoch
Visualization orbit readout
Latitude
Unknown
Longitude
Unknown
Altitude
Unknown
Speed
Unknown
Apparent Right ascension
Unknown
Apparent Declination
Unknown
Sunlit
N/A
Visualization observer readout
Local Sidereal Time
21:37:06
Azimuth
Unknown
Elevation
Unknown
Doppler factor
Unknown
Orbital elements
Apogee altitude
1,511.584 km
Perigee altitude
1,230.148 km
Semi-major axis
7,749.003 km
Eccentricity
0.01816
Inclination
82.4074°
RAAN
35.7565°
Arg. of periapsis
255.0621°
True anomaly
105.0473°
Mean anomaly
103.0307°
Eccentric anomaly
104.04008°
Mean motion
3.18181 °/min
Orbital period
113.14 mins
BSTAR
-0.0015045
Loading maneuver chart data...
Computing Atmospheric mass density...
Loading historical data...
Loading historical data...
Loading historical data...
Loading historical data...
Loading historical data...
Loading historical data...
Loading historical data...

Documentation

Showing up to 5 results
|